owner,sensor,date,latitude,longitude,relative_humidity,qcFlag 
COMPS,ioos:station:USF.COMPS:SHP:1,2017-03-01T18:00:00Z,30.0600,-84.2910,89.12,1111122 
COMPS,ioos:station:USF.COMPS:SHP:1,2017-03-01T18:06:00Z,30.0600,-84.2910,89.35,1111122 
COMPS,ioos:station:USF.COMPS:SHP:1,2017-03-01T18:12:00Z,30.0600,-84.2910,88.2,1111122 
COMPS,ioos:station:USF.COMPS:SHP:1,2017-03-01T18:18:00Z,30.0600,-84.2910,86.55,1111122 
COMPS,ioos:station:USF.COMPS:SHP:1,2017-03-01T18:24:00Z,30.0600,-84.2910,87.06,1111122 
COMPS,ioos:station:USF.COMPS:SHP:1,2017-03-01T18:30:00Z,30.0600,-84.2910,88.02,1111122 
COMPS,ioos:station:USF.COMPS:SHP:1,2017-03-01T18:36:00Z,30.0600,-84.2910,86.6,1111122 
COMPS,ioos:station:USF.COMPS:SHP:1,2017-03-01T18:42:00Z,30.0600,-84.2910,86.15,1111122 
COMPS,ioos:station:USF.COMPS:SHP:1,2017-03-01T18:48:00Z,30.0600,-84.2910,86.57,1111122 
COMPS,ioos:station:USF.COMPS:SHP:1,2017-03-01T18:54:00Z,30.0600,-84.2910,86.66,1111122 
COMPS,ioos:station:USF.COMPS:SHP:1,2017-03-01T19:00:00Z,30.0600,-84.2910,86.0,1111122 
COMPS,ioos:station:USF.COMPS:SHP:1,2017-03-01T19:06:00Z,30.0600,-84.2910,86.25,1111122 
COMPS,ioos:station:USF.COMPS:SHP:1,2017-03-01T19:12:00Z,30.0600,-84.2910,86.56,1111122 
COMPS,ioos:station:USF.COMPS:SHP:1,2017-03-01T19:18:00Z,30.0600,-84.2910,86.02,1111122 
COMPS,ioos:station:USF.COMPS:SHP:1,2017-03-01T19:24:00Z,30.0600,-84.2910,85.51,1111122 
COMPS,ioos:station:USF.COMPS:SHP:1,2017-03-01T19:30:00Z,30.0600,-84.2910,84.52,1111122 
COMPS,ioos:station:USF.COMPS:SHP:1,2017-03-01T19:36:00Z,30.0600,-84.2910,84.8,1111122 
COMPS,ioos:station:USF.COMPS:SHP:1,2017-03-01T19:42:00Z,30.0600,-84.2910,83.98,1111122 
COMPS,ioos:station:USF.COMPS:SHP:1,2017-03-01T19:48:00Z,30.0600,-84.2910,84.51,1111122 
COMPS,ioos:station:USF.COMPS:SHP:1,2017-03-01T19:54:00Z,30.0600,-84.2910,84.72,1111122 
COMPS,ioos:station:USF.COMPS:SHP:1,2017-03-01T20:00:00Z,30.0600,-84.2910,85.49,1111122 
COMPS,ioos:station:USF.COMPS:SHP:1,2017-03-01T20:06:00Z,30.0600,-84.2910,85.08,1111122 
COMPS,ioos:station:USF.COMPS:SHP:1,2017-03-01T20:12:00Z,30.0600,-84.2910,84.83,1111122 
COMPS,ioos:station:USF.COMPS:SHP:1,2017-03-01T20:18:00Z,30.0600,-84.2910,85.44,1111122 
COMPS,ioos:station:USF.COMPS:SHP:1,2017-03-01T20:24:00Z,30.0600,-84.2910,86.63,1111122 
COMPS,ioos:station:USF.COMPS:SHP:1,2017-03-01T20:30:00Z,30.0600,-84.2910,87.15,1111122 
COMPS,ioos:station:USF.COMPS:SHP:1,2017-03-01T20:36:00Z,30.0600,-84.2910,87.45,1111122 
COMPS,ioos:station:USF.COMPS:SHP:1,2017-03-01T20:42:00Z,30.0600,-84.2910,88.13,1111122 
COMPS,ioos:station:USF.COMPS:SHP:1,2017-03-01T20:48:00Z,30.0600,-84.2910,88.19,1111122 
COMPS,ioos:station:USF.COMPS:SHP:1,2017-03-01T20:54:00Z,30.0600,-84.2910,88.16,1111122 
COMPS,ioos:station:USF.COMPS:SHP:1,2017-03-01T21:54:00Z,30.0600,-84.2910,89.13,1111122 
COMPS,ioos:station:USF.COMPS:SHP:1,2017-03-02T15:00:00Z,30.0600,-84.2910,70.01,1111122 
COMPS,ioos:station:USF.COMPS:SHP:1,2017-03-02T15:06:00Z,30.0600,-84.2910,68.73,1111122 
COMPS,ioos:station:USF.COMPS:SHP:1,2017-03-02T15:12:00Z,30.0600,-84.2910,67.51,1111122 
COMPS,ioos:station:USF.COMPS:SHP:1,2017-03-02T15:18:00Z,30.0600,-84.2910,66.85,1111122 
COMPS,ioos:station:USF.COMPS:SHP:1,2017-03-02T15:24:00Z,30.0600,-84.2910,65.87,1111122 
COMPS,ioos:station:USF.COMPS:SHP:1,2017-03-02T15:30:00Z,30.0600,-84.2910,64.43,1111122 
COMPS,ioos:station:USF.COMPS:SHP:1,2017-03-02T15:36:00Z,30.0600,-84.2910,63.14,1111122 
COMPS,ioos:station:USF.COMPS:SHP:1,2017-03-02T15:42:00Z,30.0600,-84.2910,62.5,1111122 
COMPS,ioos:station:USF.COMPS:SHP:1,2017-03-02T15:48:00Z,30.0600,-84.2910,61.64,1111122 
COMPS,ioos:station:USF.COMPS:SHP:1,2017-03-02T15:54:00Z,30.0600,-84.2910,60.08,1111122 
COMPS,ioos:station:USF.COMPS:SHP:1,2017-03-02T16:00:00Z,30.0600,-84.2910,58.61,1111122 
COMPS,ioos:station:USF.COMPS:SHP:1,2017-03-02T16:06:00Z,30.0600,-84.2910,55.09,1111122 
COMPS,ioos:station:USF.COMPS:SHP:1,2017-03-02T16:12:00Z,30.0600,-84.2910,53.66,1111122 
COMPS,ioos:station:USF.COMPS:SHP:1,2017-03-02T16:18:00Z,30.0600,-84.2910,53.63,1111122 
COMPS,ioos:station:USF.COMPS:SHP:1,2017-03-02T16:24:00Z,30.0600,-84.2910,53.36,1111122 
COMPS,ioos:station:USF.COMPS:SHP:1,2017-03-02T16:30:00Z,30.0600,-84.2910,50.85,1111122 
COMPS,ioos:station:USF.COMPS:SHP:1,2017-03-02T16:36:00Z,30.0600,-84.2910,52.21,1111122 
COMPS,ioos:station:USF.COMPS:SHP:1,2017-03-02T16:42:00Z,30.0600,-84.2910,52.74,1111122 
COMPS,ioos:station:USF.COMPS:SHP:1,2017-03-02T16:48:00Z,30.0600,-84.2910,51.33,1111122 
COMPS,ioos:station:USF.COMPS:SHP:1,2017-03-02T16:54:00Z,30.0600,-84.2910,51.15,1111122 
COMPS,ioos:station:USF.COMPS:SHP:1,2017-03-02T17:00:00Z,30.0600,-84.2910,50.54,1111122 
COMPS,ioos:station:USF.COMPS:SHP:1,2017-03-02T17:06:00Z,30.0600,-84.2910,50.36,1111122 
COMPS,ioos:station:USF.COMPS:SHP:1,2017-03-02T17:12:00Z,30.0600,-84.2910,49.66,1111122 
COMPS,ioos:station:USF.COMPS:SHP:1,2017-03-02T17:18:00Z,30.0600,-84.2910,48.06,1111122 
COMPS,ioos:station:USF.COMPS:SHP:1,2017-03-02T17:24:00Z,30.0600,-84.2910,47.85,1111122 
COMPS,ioos:station:USF.COMPS:SHP:1,2017-03-02T17:30:00Z,30.0600,-84.2910,46.43,1111122 
COMPS,ioos:station:USF.COMPS:SHP:1,2017-03-02T17:36:00Z,30.0600,-84.2910,45.14,1111122 
COMPS,ioos:station:USF.COMPS:SHP:1,2017-03-02T17:42:00Z,30.0600,-84.2910,45.47,1111122 
COMPS,ioos:station:USF.COMPS:SHP:1,2017-03-02T17:48:00Z,30.0600,-84.2910,45.36,1111122 
COMPS,ioos:station:USF.COMPS:SHP:1,2017-03-02T17:54:00Z,30.0600,-84.2910,42.03,1111122 
COMPS,ioos:station:USF.COMPS:SHP:1,2017-03-02T18:00:00Z,30.0600,-84.2910,37.53,1111122 
COMPS,ioos:station:USF.COMPS:SHP:1,2017-03-02T18:06:00Z,30.0600,-84.2910,37.14,1111122 
COMPS,ioos:station:USF.COMPS:SHP:1,2017-03-02T18:12:00Z,30.0600,-84.2910,36.34,1111122 
COMPS,ioos:station:USF.COMPS:SHP:1,2017-03-02T18:18:00Z,30.0600,-84.2910,38.45,1111122 
COMPS,ioos:station:USF.COMPS:SHP:1,2017-03-02T18:24:00Z,30.0600,-84.2910,36.15,1111122 
COMPS,ioos:station:USF.COMPS:SHP:1,2017-03-02T18:30:00Z,30.0600,-84.2910,33.2,1111122 
COMPS,ioos:station:USF.COMPS:SHP:1,2017-03-02T18:36:00Z,30.0600,-84.2910,32.63,1111122 
COMPS,ioos:station:USF.COMPS:SHP:1,2017-03-02T18:42:00Z,30.0600,-84.2910,30.57,1111122 
COMPS,ioos:station:USF.COMPS:SHP:1,2017-03-02T18:48:00Z,30.0600,-84.2910,30.98,1111122 
COMPS,ioos:station:USF.COMPS:SHP:1,2017-03-02T18:54:00Z,30.0600,-84.2910,31.34,1111122 
COMPS,ioos:station:USF.COMPS:SHP:1,2017-03-02T20:00:00Z,30.0600,-84.2910,22.6,1111122 
COMPS,ioos:station:USF.COMPS:SHP:1,2017-03-02T21:48:00Z,30.0600,-84.2910,23.66,1111122 
COMPS,ioos:station:USF.COMPS:SHP:1,2017-03-02T21:54:00Z,30.0600,-84.2910,24.01,1111122 
COMPS,ioos:station:USF.COMPS:SHP:1,2017-03-02T22:00:00Z,30.0600,-84.2910,22.64,1111122 
COMPS,ioos:station:USF.COMPS:SHP:1,2017-03-02T22:06:00Z,30.0600,-84.2910,24.19,1111122 
COMPS,ioos:station:USF.COMPS:SHP:1,2017-03-02T22:12:00Z,30.0600,-84.2910,23.89,1111122 
COMPS,ioos:station:USF.COMPS:SHP:1,2017-03-02T22:18:00Z,30.0600,-84.2910,22.71,1111122 
COMPS,ioos:station:USF.COMPS:SHP:1,2017-03-02T22:24:00Z,30.0600,-84.2910,24.25,1111122 
COMPS,ioos:station:USF.COMPS:SHP:1,2017-03-02T22:30:00Z,30.0600,-84.2910,22.5,1111122 
COMPS,ioos:station:USF.COMPS:SHP:1,2017-03-02T22:36:00Z,30.0600,-84.2910,22.25,1111122 
COMPS,ioos:station:USF.COMPS:SHP:1,2017-03-02T22:42:00Z,30.0600,-84.2910,22.73,1111122 
COMPS,ioos:station:USF.COMPS:SHP:1,2017-03-02T22:48:00Z,30.0600,-84.2910,23.69,1111122 
COMPS,ioos:station:USF.COMPS:SHP:1,2017-03-02T22:54:00Z,30.0600,-84.2910,23.71,1111122 
COMPS,ioos:station:USF.COMPS:SHP:1,2017-03-02T23:00:00Z,30.0600,-84.2910,25.17,1111122 
COMPS,ioos:station:USF.COMPS:SHP:1,2017-03-02T23:06:00Z,30.0600,-84.2910,25.42,1111122 
COMPS,ioos:station:USF.COMPS:SHP:1,2017-03-02T23:12:00Z,30.0600,-84.2910,26.59,1111122 
COMPS,ioos:station:USF.COMPS:SHP:1,2017-03-02T23:18:00Z,30.0600,-84.2910,26.47,1111122 
COMPS,ioos:station:USF.COMPS:SHP:1,2017-03-02T23:24:00Z,30.0600,-84.2910,27.36,1111122 
COMPS,ioos:station:USF.COMPS:SHP:1,2017-03-02T23:30:00Z,30.0600,-84.2910,28.13,1111122 
COMPS,ioos:station:USF.COMPS:SHP:1,2017-03-02T23:36:00Z,30.0600,-84.2910,30.01,1111122 
COMPS,ioos:station:USF.COMPS:SHP:1,2017-03-02T23:42:00Z,30.0600,-84.2910,29.7,1111122 
COMPS,ioos:station:USF.COMPS:SHP:1,2017-03-02T23:48:00Z,30.0600,-84.2910,29.84,1111122 
COMPS,ioos:station:USF.COMPS:SHP:1,2017-03-02T23:54:00Z,30.0600,-84.2910,32.15,1111122 
COMPS,ioos:station:USF.COMPS:SHP:1,2017-03-03T00:00:00Z,30.0600,-84.2910,31.81,1111122 
COMPS,ioos:station:USF.COMPS:SHP:1,2017-03-03T00:06:00Z,30.0600,-84.2910,31.57,1111122 
COMPS,ioos:station:USF.COMPS:SHP:1,2017-03-03T00:12:00Z,30.0600,-84.2910,32.11,1111122 
COMPS,ioos:station:USF.COMPS:SHP:1,2017-03-03T00:18:00Z,30.0600,-84.2910,32.6,1111122 
COMPS,ioos:station:USF.COMPS:SHP:1,2017-03-03T00:24:00Z,30.0600,-84.2910,33.08,1111122 
COMPS,ioos:station:USF.COMPS:SHP:1,2017-03-03T00:30:00Z,30.0600,-84.2910,32.91,1111122 
COMPS,ioos:station:USF.COMPS:SHP:1,2017-03-03T00:36:00Z,30.0600,-84.2910,33.69,1111122 
COMPS,ioos:station:USF.COMPS:SHP:1,2017-03-03T00:42:00Z,30.0600,-84.2910,33.05,1111122 
COMPS,ioos:station:USF.COMPS:SHP:1,2017-03-03T00:48:00Z,30.0600,-84.2910,33.9,1111122 
COMPS,ioos:station:USF.COMPS:SHP:1,2017-03-03T00:54:00Z,30.0600,-84.2910,33.71,1111122 
COMPS,ioos:station:USF.COMPS:SHP:1,2017-03-03T01:00:00Z,30.0600,-84.2910,34.51,1111122 
COMPS,ioos:station:USF.COMPS:SHP:1,2017-03-03T01:06:00Z,30.0600,-84.2910,36.11,1111122 
COMPS,ioos:station:USF.COMPS:SHP:1,2017-03-03T01:12:00Z,30.0600,-84.2910,35.22,1111122 
COMPS,ioos:station:USF.COMPS:SHP:1,2017-03-03T01:18:00Z,30.0600,-84.2910,36.7,1111122 
COMPS,ioos:station:USF.COMPS:SHP:1,2017-03-03T01:24:00Z,30.0600,-84.2910,36.1,1111122 
COMPS,ioos:station:USF.COMPS:SHP:1,2017-03-03T01:30:00Z,30.0600,-84.2910,37.08,1111122 
COMPS,ioos:station:USF.COMPS:SHP:1,2017-03-03T01:36:00Z,30.0600,-84.2910,36.77,1111122 
COMPS,ioos:station:USF.COMPS:SHP:1,2017-03-03T01:42:00Z,30.0600,-84.2910,36.78,1111122 
COMPS,ioos:station:USF.COMPS:SHP:1,2017-03-03T01:48:00Z,30.0600,-84.2910,37.92,1111122 
COMPS,ioos:station:USF.COMPS:SHP:1,2017-03-03T01:54:00Z,30.0600,-84.2910,39.09,1111122 
COMPS,ioos:station:USF.COMPS:SHP:1,2017-03-03T02:00:00Z,30.0600,-84.2910,39.0,1111122 
COMPS,ioos:station:USF.COMPS:SHP:1,2017-03-03T02:06:00Z,30.0600,-84.2910,39.02,1111122 
COMPS,ioos:station:USF.COMPS:SHP:1,2017-03-03T02:12:00Z,30.0600,-84.2910,38.26,1111122 
COMPS,ioos:station:USF.COMPS:SHP:1,2017-03-03T02:18:00Z,30.0600,-84.2910,39.63,1111122 
COMPS,ioos:station:USF.COMPS:SHP:1,2017-03-03T02:24:00Z,30.0600,-84.2910,38.12,1111122 
COMPS,ioos:station:USF.COMPS:SHP:1,2017-03-03T02:30:00Z,30.0600,-84.2910,37.97,1111122 
COMPS,ioos:station:USF.COMPS:SHP:1,2017-03-03T02:36:00Z,30.0600,-84.2910,36.38,1111122 
COMPS,ioos:station:USF.COMPS:SHP:1,2017-03-03T02:42:00Z,30.0600,-84.2910,35.9,1111122 
COMPS,ioos:station:USF.COMPS:SHP:1,2017-03-03T02:48:00Z,30.0600,-84.2910,36.43,1111122 
COMPS,ioos:station:USF.COMPS:SHP:1,2017-03-03T02:54:00Z,30.0600,-84.2910,36.53,1111122 
COMPS,ioos:station:USF.COMPS:SHP:1,2017-03-03T03:00:00Z,30.0600,-84.2910,37.62,1111122 
COMPS,ioos:station:USF.COMPS:SHP:1,2017-03-03T03:06:00Z,30.0600,-84.2910,39.5,1111122 
COMPS,ioos:station:USF.COMPS:SHP:1,2017-03-03T03:12:00Z,30.0600,-84.2910,40.66,1111122 
COMPS,ioos:station:USF.COMPS:SHP:1,2017-03-03T03:18:00Z,30.0600,-84.2910,41.55,1111122 
COMPS,ioos:station:USF.COMPS:SHP:1,2017-03-03T03:24:00Z,30.0600,-84.2910,41.95,1111122 
COMPS,ioos:station:USF.COMPS:SHP:1,2017-03-03T03:30:00Z,30.0600,-84.2910,43.37,1111122 
COMPS,ioos:station:USF.COMPS:SHP:1,2017-03-03T03:36:00Z,30.0600,-84.2910,42.06,1111122 
COMPS,ioos:station:USF.COMPS:SHP:1,2017-03-03T03:42:00Z,30.0600,-84.2910,43.46,1111122 
COMPS,ioos:station:USF.COMPS:SHP:1,2017-03-03T03:48:00Z,30.0600,-84.2910,44.61,1111122 
COMPS,ioos:station:USF.COMPS:SHP:1,2017-03-03T03:54:00Z,30.0600,-84.2910,43.71,1111122 
COMPS,ioos:station:USF.COMPS:SHP:1,2017-03-03T04:00:00Z,30.0600,-84.2910,43.9,1111122 
COMPS,ioos:station:USF.COMPS:SHP:1,2017-03-03T04:06:00Z,30.0600,-84.2910,44.67,1111122 
COMPS,ioos:station:USF.COMPS:SHP:1,2017-03-03T04:12:00Z,30.0600,-84.2910,45.55,1111122 
COMPS,ioos:station:USF.COMPS:SHP:1,2017-03-03T04:18:00Z,30.0600,-84.2910,45.99,1111122 
COMPS,ioos:station:USF.COMPS:SHP:1,2017-03-03T04:24:00Z,30.0600,-84.2910,47.25,1111122 
COMPS,ioos:station:USF.COMPS:SHP:1,2017-03-03T04:30:00Z,30.0600,-84.2910,47.24,1111122 
COMPS,ioos:station:USF.COMPS:SHP:1,2017-03-03T04:36:00Z,30.0600,-84.2910,47.71,1111122 
COMPS,ioos:station:USF.COMPS:SHP:1,2017-03-03T04:42:00Z,30.0600,-84.2910,46.67,1111122 
COMPS,ioos:station:USF.COMPS:SHP:1,2017-03-03T04:48:00Z,30.0600,-84.2910,46.0,1111122 
COMPS,ioos:station:USF.COMPS:SHP:1,2017-03-03T04:54:00Z,30.0600,-84.2910,46.18,1111122 
COMPS,ioos:station:USF.COMPS:SHP:1,2017-03-03T05:00:00Z,30.0600,-84.2910,46.77,1111122 
COMPS,ioos:station:USF.COMPS:SHP:1,2017-03-03T05:06:00Z,30.0600,-84.2910,46.73,1111122 
COMPS,ioos:station:USF.COMPS:SHP:1,2017-03-03T05:12:00Z,30.0600,-84.2910,47.82,1111122 
COMPS,ioos:station:USF.COMPS:SHP:1,2017-03-03T05:18:00Z,30.0600,-84.2910,48.99,1111122 
COMPS,ioos:station:USF.COMPS:SHP:1,2017-03-03T05:24:00Z,30.0600,-84.2910,50.13,1111122 
COMPS,ioos:station:USF.COMPS:SHP:1,2017-03-03T05:30:00Z,30.0600,-84.2910,48.97,1111122 
COMPS,ioos:station:USF.COMPS:SHP:1,2017-03-03T05:36:00Z,30.0600,-84.2910,48.43,1111122 
COMPS,ioos:station:USF.COMPS:SHP:1,2017-03-03T05:42:00Z,30.0600,-84.2910,47.91,1111122 
COMPS,ioos:station:USF.COMPS:SHP:1,2017-03-03T05:48:00Z,30.0600,-84.2910,48.31,1111122 
COMPS,ioos:station:USF.COMPS:SHP:1,2017-03-03T05:54:00Z,30.0600,-84.2910,47.99,1111122 
COMPS,ioos:station:USF.COMPS:SHP:1,2017-03-03T06:00:00Z,30.0600,-84.2910,49.41,1111122 
COMPS,ioos:station:USF.COMPS:SHP:1,2017-03-03T06:06:00Z,30.0600,-84.2910,49.8,1111122 
COMPS,ioos:station:USF.COMPS:SHP:1,2017-03-03T06:12:00Z,30.0600,-84.2910,50.29,1111122 
COMPS,ioos:station:USF.COMPS:SHP:1,2017-03-03T06:18:00Z,30.0600,-84.2910,50.59,1111122 
COMPS,ioos:station:USF.COMPS:SHP:1,2017-03-03T06:24:00Z,30.0600,-84.2910,49.74,1111122 
COMPS,ioos:station:USF.COMPS:SHP:1,2017-03-03T06:30:00Z,30.0600,-84.2910,49.53,1111122 
COMPS,ioos:station:USF.COMPS:SHP:1,2017-03-03T06:36:00Z,30.0600,-84.2910,49.89,1111122 
COMPS,ioos:station:USF.COMPS:SHP:1,2017-03-03T06:42:00Z,30.0600,-84.2910,50.21,1111122 
COMPS,ioos:station:USF.COMPS:SHP:1,2017-03-03T06:48:00Z,30.0600,-84.2910,51.68,1111122 
COMPS,ioos:station:USF.COMPS:SHP:1,2017-03-03T06:54:00Z,30.0600,-84.2910,51.14,1111122 
COMPS,ioos:station:USF.COMPS:SHP:1,2017-03-03T07:00:00Z,30.0600,-84.2910,49.75,1111122 
COMPS,ioos:station:USF.COMPS:SHP:1,2017-03-03T07:06:00Z,30.0600,-84.2910,48.83,1111122 
COMPS,ioos:station:USF.COMPS:SHP:1,2017-03-03T07:12:00Z,30.0600,-84.2910,49.38,1111122 
COMPS,ioos:station:USF.COMPS:SHP:1,2017-03-03T07:18:00Z,30.0600,-84.2910,48.58,1111122 
COMPS,ioos:station:USF.COMPS:SHP:1,2017-03-03T07:24:00Z,30.0600,-84.2910,48.5,1111122 
COMPS,ioos:station:USF.COMPS:SHP:1,2017-03-03T07:30:00Z,30.0600,-84.2910,47.29,1111122 
COMPS,ioos:station:USF.COMPS:SHP:1,2017-03-03T07:36:00Z,30.0600,-84.2910,47.9,1111122 
COMPS,ioos:station:USF.COMPS:SHP:1,2017-03-03T07:42:00Z,30.0600,-84.2910,48.96,1111122 
COMPS,ioos:station:USF.COMPS:SHP:1,2017-03-03T07:48:00Z,30.0600,-84.2910,51.72,1111122 
COMPS,ioos:station:USF.COMPS:SHP:1,2017-03-03T07:54:00Z,30.0600,-84.2910,52.06,1111122 
COMPS,ioos:station:USF.COMPS:SHP:1,2017-03-03T08:00:00Z,30.0600,-84.2910,52.68,1111122 
COMPS,ioos:station:USF.COMPS:SHP:1,2017-03-03T08:06:00Z,30.0600,-84.2910,53.62,1111122 
COMPS,ioos:station:USF.COMPS:SHP:1,2017-03-03T08:12:00Z,30.0600,-84.2910,55.25,1111122 
COMPS,ioos:station:USF.COMPS:SHP:1,2017-03-03T08:18:00Z,30.0600,-84.2910,55.63,1111122 
COMPS,ioos:station:USF.COMPS:SHP:1,2017-03-03T08:24:00Z,30.0600,-84.2910,55.94,1111122 
COMPS,ioos:station:USF.COMPS:SHP:1,2017-03-03T08:30:00Z,30.0600,-84.2910,56.7,1111122 
COMPS,ioos:station:USF.COMPS:SHP:1,2017-03-03T08:36:00Z,30.0600,-84.2910,56.4,1111122 
COMPS,ioos:station:USF.COMPS:SHP:1,2017-03-03T08:42:00Z,30.0600,-84.2910,56.6,1111122 
COMPS,ioos:station:USF.COMPS:SHP:1,2017-03-03T08:48:00Z,30.0600,-84.2910,57.23,1111122 
COMPS,ioos:station:USF.COMPS:SHP:1,2017-03-03T08:54:00Z,30.0600,-84.2910,58.03,1111122 
COMPS,ioos:station:USF.COMPS:SHP:1,2017-03-03T09:00:00Z,30.0600,-84.2910,56.42,1111122 
COMPS,ioos:station:USF.COMPS:SHP:1,2017-03-03T09:06:00Z,30.0600,-84.2910,57.97,1111122 
COMPS,ioos:station:USF.COMPS:SHP:1,2017-03-03T09:12:00Z,30.0600,-84.2910,57.79,1111122 
COMPS,ioos:station:USF.COMPS:SHP:1,2017-03-03T09:18:00Z,30.0600,-84.2910,56.01,1111122 
COMPS,ioos:station:USF.COMPS:SHP:1,2017-03-03T09:24:00Z,30.0600,-84.2910,56.74,1111122 
COMPS,ioos:station:USF.COMPS:SHP:1,2017-03-03T09:30:00Z,30.0600,-84.2910,57.37,1111122 
COMPS,ioos:station:USF.COMPS:SHP:1,2017-03-03T09:36:00Z,30.0600,-84.2910,59.22,1111122 
COMPS,ioos:station:USF.COMPS:SHP:1,2017-03-03T09:42:00Z,30.0600,-84.2910,58.8,1111122 
COMPS,ioos:station:USF.COMPS:SHP:1,2017-03-03T09:48:00Z,30.0600,-84.2910,60.3,1111122 
COMPS,ioos:station:USF.COMPS:SHP:1,2017-03-03T09:54:00Z,30.0600,-84.2910,60.02,1111122 
COMPS,ioos:station:USF.COMPS:SHP:1,2017-03-03T10:00:00Z,30.0600,-84.2910,62.76,1111122 
COMPS,ioos:station:USF.COMPS:SHP:1,2017-03-03T10:06:00Z,30.0600,-84.2910,63.92,1111122 
COMPS,ioos:station:USF.COMPS:SHP:1,2017-03-03T10:12:00Z,30.0600,-84.2910,62.63,1111122 
COMPS,ioos:station:USF.COMPS:SHP:1,2017-03-03T10:18:00Z,30.0600,-84.2910,61.86,1111122 
COMPS,ioos:station:USF.COMPS:SHP:1,2017-03-03T10:24:00Z,30.0600,-84.2910,64.45,1111122 
COMPS,ioos:station:USF.COMPS:SHP:1,2017-03-03T10:30:00Z,30.0600,-84.2910,63.17,1111122 
COMPS,ioos:station:USF.COMPS:SHP:1,2017-03-03T10:36:00Z,30.0600,-84.2910,63.05,1111122 
COMPS,ioos:station:USF.COMPS:SHP:1,2017-03-03T10:42:00Z,30.0600,-84.2910,63.86,1111122 
COMPS,ioos:station:USF.COMPS:SHP:1,2017-03-03T10:48:00Z,30.0600,-84.2910,63.47,1111122 
COMPS,ioos:station:USF.COMPS:SHP:1,2017-03-03T10:54:00Z,30.0600,-84.2910,65.17,1111122 
COMPS,ioos:station:USF.COMPS:SHP:1,2017-03-03T11:00:00Z,30.0600,-84.2910,64.55,1111122 
COMPS,ioos:station:USF.COMPS:SHP:1,2017-03-03T11:06:00Z,30.0600,-84.2910,61.69,1111122 
COMPS,ioos:station:USF.COMPS:SHP:1,2017-03-03T11:12:00Z,30.0600,-84.2910,61.65,1111122 
COMPS,ioos:station:USF.COMPS:SHP:1,2017-03-03T11:18:00Z,30.0600,-84.2910,62.2,1111122 
COMPS,ioos:station:USF.COMPS:SHP:1,2017-03-03T11:24:00Z,30.0600,-84.2910,62.36,1111122 
COMPS,ioos:station:USF.COMPS:SHP:1,2017-03-03T11:30:00Z,30.0600,-84.2910,61.75,1111122 
COMPS,ioos:station:USF.COMPS:SHP:1,2017-03-03T11:36:00Z,30.0600,-84.2910,61.78,1111122 
COMPS,ioos:station:USF.COMPS:SHP:1,2017-03-03T11:42:00Z,30.0600,-84.2910,60.21,1111122 
COMPS,ioos:station:USF.COMPS:SHP:1,2017-03-03T11:48:00Z,30.0600,-84.2910,60.27,1111122 
COMPS,ioos:station:USF.COMPS:SHP:1,2017-03-03T11:54:00Z,30.0600,-84.2910,58.8,1111122 
COMPS,ioos:station:USF.COMPS:SHP:1,2017-03-03T12:00:00Z,30.0600,-84.2910,57.62,1111122 
COMPS,ioos:station:USF.COMPS:SHP:1,2017-03-03T12:06:00Z,30.0600,-84.2910,57.9,1111122 
COMPS,ioos:station:USF.COMPS:SHP:1,2017-03-03T12:12:00Z,30.0600,-84.2910,57.76,1111122 
COMPS,ioos:station:USF.COMPS:SHP:1,2017-03-03T12:18:00Z,30.0600,-84.2910,57.49,1111122 
COMPS,ioos:station:USF.COMPS:SHP:1,2017-03-03T12:24:00Z,30.0600,-84.2910,57.5,1111122 
COMPS,ioos:station:USF.COMPS:SHP:1,2017-03-03T12:30:00Z,30.0600,-84.2910,56.37,1111122 
COMPS,ioos:station:USF.COMPS:SHP:1,2017-03-03T12:36:00Z,30.0600,-84.2910,54.85,1111122 
COMPS,ioos:station:USF.COMPS:SHP:1,2017-03-03T12:42:00Z,30.0600,-84.2910,53.53,1111122 
COMPS,ioos:station:USF.COMPS:SHP:1,2017-03-03T12:48:00Z,30.0600,-84.2910,50.48,1111122 
COMPS,ioos:station:USF.COMPS:SHP:1,2017-03-03T12:54:00Z,30.0600,-84.2910,48.94,1111122 
COMPS,ioos:station:USF.COMPS:SHP:1,2017-03-03T13:00:00Z,30.0600,-84.2910,48.09,1111122 
COMPS,ioos:station:USF.COMPS:SHP:1,2017-03-03T13:06:00Z,30.0600,-84.2910,46.52,1111122 
COMPS,ioos:station:USF.COMPS:SHP:1,2017-03-03T13:12:00Z,30.0600,-84.2910,46.0,1111122 
COMPS,ioos:station:USF.COMPS:SHP:1,2017-03-03T13:18:00Z,30.0600,-84.2910,45.47,1111122 
COMPS,ioos:station:USF.COMPS:SHP:1,2017-03-03T13:24:00Z,30.0600,-84.2910,46.1,1111122 
COMPS,ioos:station:USF.COMPS:SHP:1,2017-03-03T13:30:00Z,30.0600,-84.2910,43.86,1111122 
COMPS,ioos:station:USF.COMPS:SHP:1,2017-03-03T13:36:00Z,30.0600,-84.2910,43.13,1111122 
COMPS,ioos:station:USF.COMPS:SHP:1,2017-03-03T13:42:00Z,30.0600,-84.2910,42.64,1111122 
COMPS,ioos:station:USF.COMPS:SHP:1,2017-03-03T13:48:00Z,30.0600,-84.2910,42.35,1111122 
COMPS,ioos:station:USF.COMPS:SHP:1,2017-03-03T13:54:00Z,30.0600,-84.2910,41.45,1111122 
COMPS,ioos:station:USF.COMPS:SHP:1,2017-03-03T14:00:00Z,30.0600,-84.2910,40.64,1111122 
COMPS,ioos:station:USF.COMPS:SHP:1,2017-03-03T14:06:00Z,30.0600,-84.2910,40.87,1111122 
COMPS,ioos:station:USF.COMPS:SHP:1,2017-03-03T14:12:00Z,30.0600,-84.2910,40.01,1111122 
COMPS,ioos:station:USF.COMPS:SHP:1,2017-03-03T14:18:00Z,30.0600,-84.2910,38.59,1111122 
COMPS,ioos:station:USF.COMPS:SHP:1,2017-03-03T14:24:00Z,30.0600,-84.2910,38.56,1111122 
COMPS,ioos:station:USF.COMPS:SHP:1,2017-03-03T14:30:00Z,30.0600,-84.2910,37.72,1111122 
COMPS,ioos:station:USF.COMPS:SHP:1,2017-03-03T14:36:00Z,30.0600,-84.2910,37.14,1111122 
COMPS,ioos:station:USF.COMPS:SHP:1,2017-03-03T14:42:00Z,30.0600,-84.2910,35.65,1111122 
COMPS,ioos:station:USF.COMPS:SHP:1,2017-03-03T14:48:00Z,30.0600,-84.2910,35.73,1111122 
COMPS,ioos:station:USF.COMPS:SHP:1,2017-03-03T14:54:00Z,30.0600,-84.2910,35.75,1111122 
COMPS,ioos:station:USF.COMPS:SHP:1,2017-03-03T15:00:00Z,30.0600,-84.2910,35.18,1111122 
COMPS,ioos:station:USF.COMPS:SHP:1,2017-03-03T15:06:00Z,30.0600,-84.2910,35.79,1111122 
COMPS,ioos:station:USF.COMPS:SHP:1,2017-03-03T15:12:00Z,30.0600,-84.2910,33.89,1111122 
COMPS,ioos:station:USF.COMPS:SHP:1,2017-03-03T15:18:00Z,30.0600,-84.2910,31.73,1111122 
COMPS,ioos:station:USF.COMPS:SHP:1,2017-03-03T15:24:00Z,30.0600,-84.2910,31.45,1111122 
COMPS,ioos:station:USF.COMPS:SHP:1,2017-03-03T15:30:00Z,30.0600,-84.2910,29.94,1111122 
COMPS,ioos:station:USF.COMPS:SHP:1,2017-03-03T15:36:00Z,30.0600,-84.2910,30.28,1111122 
COMPS,ioos:station:USF.COMPS:SHP:1,2017-03-03T15:42:00Z,30.0600,-84.2910,28.34,1111122 
COMPS,ioos:station:USF.COMPS:SHP:1,2017-03-03T15:48:00Z,30.0600,-84.2910,26.38,1111122 
COMPS,ioos:station:USF.COMPS:SHP:1,2017-03-03T15:54:00Z,30.0600,-84.2910,24.62,1111122 
COMPS,ioos:station:USF.COMPS:SHP:1,2017-03-03T16:00:00Z,30.0600,-84.2910,23.93,1111122 
COMPS,ioos:station:USF.COMPS:SHP:1,2017-03-03T16:06:00Z,30.0600,-84.2910,24.91,1111122 
COMPS,ioos:station:USF.COMPS:SHP:1,2017-03-03T16:12:00Z,30.0600,-84.2910,25.48,1111122 
COMPS,ioos:station:USF.COMPS:SHP:1,2017-03-03T16:18:00Z,30.0600,-84.2910,24.12,1111122 
COMPS,ioos:station:USF.COMPS:SHP:1,2017-03-03T16:24:00Z,30.0600,-84.2910,22.6,1111122 
COMPS,ioos:station:USF.COMPS:SHP:1,2017-03-03T16:30:00Z,30.0600,-84.2910,22.85,1111122 
COMPS,ioos:station:USF.COMPS:SHP:1,2017-03-03T16:36:00Z,30.0600,-84.2910,24.38,1111122 
COMPS,ioos:station:USF.COMPS:SHP:1,2017-03-03T16:42:00Z,30.0600,-84.2910,20.87,1111122 
COMPS,ioos:station:USF.COMPS:SHP:1,2017-03-03T16:48:00Z,30.0600,-84.2910,19.58,1111122 
COMPS,ioos:station:USF.COMPS:SHP:1,2017-03-03T16:54:00Z,30.0600,-84.2910,20.25,1111122 
COMPS,ioos:station:USF.COMPS:SHP:1,2017-03-03T17:00:00Z,30.0600,-84.2910,21.36,1111122 
COMPS,ioos:station:USF.COMPS:SHP:1,2017-03-03T17:06:00Z,30.0600,-84.2910,20.53,1111122 
COMPS,ioos:station:USF.COMPS:SHP:1,2017-03-03T17:12:00Z,30.0600,-84.2910,22.25,1111122 
COMPS,ioos:station:USF.COMPS:SHP:1,2017-03-03T17:18:00Z,30.0600,-84.2910,21.16,1111122 
COMPS,ioos:station:USF.COMPS:SHP:1,2017-03-03T17:24:00Z,30.0600,-84.2910,21.36,1111122 
COMPS,ioos:station:USF.COMPS:SHP:1,2017-03-03T17:30:00Z,30.0600,-84.2910,19.95,1111122 
COMPS,ioos:station:USF.COMPS:SHP:1,2017-03-03T17:36:00Z,30.0600,-84.2910,19.43,1111122 
COMPS,ioos:station:USF.COMPS:SHP:1,2017-03-03T17:42:00Z,30.0600,-84.2910,18.93,1111122 